Location: ICStars Ranch
(38.8297°N, 93.7687°W)
Time: 08:41:09
(UTC-05:00)

Daily predictions for brighter satellites

Satellite Brightness Start Highest point End
(mag) Time Altitude Azimuth Time Altitude Azimuth Time Altitude Azimuth
USA 40 PKM 4.4 20:54:46 10° SW 20:58:12 84° NW 21:02:21 10° NE
Nadezhda 1 Rocket 4.5 20:54:50 10° SSE 21:00:46 42° E 21:06:43 10° NNE
BREEZE-M DEB (TANK) 4.4 20:57:40 10° WNW 21:01:44 77° SSW 21:16:29 10° SE
Cosmos 1656 Rocket 3.7 20:57:23 10° NNW 21:02:53 87° WSW 21:08:24 10° SSE
Cosmos 1833 Rocket 4.5 21:02:49 10° ESE 21:04:23 11° E 21:05:58 10° E
SL-08 ROCKET BODY 4.5 20:59:58 10° N 21:06:11 75° E 21:12:21 10° SSE
Cosmos 1939 Rocket 3.2 21:04:02 10° SSE 21:07:44 46° ENE 21:11:27 10° N
Cosmos 405 4.2 21:04:47 10° NNE 21:07:51 26° ENE 21:10:52 10° SE
Helios 1A 3.0 21:09:55 10° SSE 21:14:06 71° ENE 21:18:18 10° N
Cosmos 1437 Rocket 4.3 21:11:39 10° NNE 21:14:33 20° ENE 21:17:17 11° ESE
Meteor 2-4 Rocket 3.8 21:12:00 10° S 21:17:33 64° E 21:23:18 10° NNE
Cosmos 1346 3.2 21:15:11 10° SSW 21:17:54 67° W 21:20:40 10° N
SPOT 5 4.4 21:18:59 10° ESE 21:21:40 16° ENE 21:24:25 10° NNE
ERS-1 Rocket 3.6 21:21:27 11° SE 21:25:55 40° ENE 21:30:35 10° N
Cosmos 1943 Rocket 4.4 21:22:51 10° NW 21:27:02 22° W 21:31:12 10° SSW
CZ-4B DEB 2.5 21:24:53 10° SSE 21:27:51 78° ENE 21:30:50 10° N
GENESIS II 4.4 21:24:55 10° NW 21:28:50 67° WSW 21:32:22 12° SSE
CENTAUR R/B 3.6 21:21:38 10° NW 21:29:30 61° WSW 21:37:46 10° SSE
Helios 1B rocket 2.8 21:29:54 10° N 21:34:02 70° WNW 21:38:08 10° SSW
Meteor 1-29 3.0 21:32:33 10° N 21:35:56 77° WNW 21:39:16 10° SSW
Cosmos 1980 Rocket 4.4 21:35:32 10° NNE 21:36:53 11° NE 21:38:12 10° ENE
Okean 1-7 Rocket 3.5 21:33:50 10° S 21:38:16 77° E 21:42:47 10° N
Cosmos 405 Rocket 4.3 21:35:01 10° SW 21:38:31 36° WNW 21:42:07 10° N
DNEPR-1 R/B 4.1 21:35:29 10° NW 21:39:42 57° WSW 21:43:54 13° SSE
ISS -1.5 21:37:42 10° W 21:40:36 27° NNW 21:43:30 10° NNE
CRYOSAT 2 4.4 21:36:59 10° SSE 21:41:43 65° E 21:46:31 10° N
Cosmos 1238 Rocket 4.1 21:35:36 10° S 21:42:22 87° E 21:48:50 10° N
ARGOS 4.0 21:39:41 16° SE 21:43:23 35° ENE 21:48:14 10° N
Cosmos 1441 Rocket 3.7 21:42:14 10° SSW 21:45:54 59° W 21:49:37 10° N
OAO 2 Rocket 3.5 21:41:15 10° W 21:46:02 51° S 21:49:22 19° ESE
Cosmos 1606 Rocket 3.9 21:43:43 10° N 21:47:53 45° E 21:50:29 21° SE
Aureole 1 Rocket 4.4 21:48:09 10° SW 21:50:59 27° WNW 21:53:37 10° N
Aureole 3 Rocket 4.5 21:45:33 10° SSW 21:51:34 49° W 21:55:55 10° N
ASTEX 1 3.4 21:47:39 10° S 21:52:33 89° W 21:57:28 10° N
CZ-3A R/B 0.3 21:48:34 10° SW 21:53:24 74° SE 21:55:13 10° NE
Cosmos 2341 Rocket 4.3 21:47:38 10° N 21:53:52 54° E 21:58:25 19° SSE
Cosmos 1025 Rocket 3.1 21:49:54 10° S 21:54:09 78° W 21:58:26 10° N
NOAA 11 4.3 21:50:42 18° SSE 21:54:45 61° ENE 22:00:06 10° N
Cosmos 1726 Rocket 3.9 21:53:01 10° N 21:57:12 48° E 21:59:25 25° SE
Meteor 1-23 Rocket 4.4 21:52:03 10° SSW 21:57:37 76° W 22:03:15 10° N
Okean 2 3.3 21:55:22 10° S 21:59:27 88° W 22:03:33 10° N
MetOp-B 4.2 21:57:15 20° SSE 22:00:56 63° ENE 22:06:14 10° N
USA 245 3.5 22:03:30 25° ENE 22:03:30 25° ENE 22:05:18 10° NNE
Cosmos 1624 Rocket 4.0 22:02:04 10° NNW 22:07:23 89° SW 22:10:48 23° SSE
PSLV R/B 3.5 22:07:43 10° W 22:10:43 45° SSW 22:11:10 41° S
H-2A R/B 2.7 22:09:14 25° ESE 22:11:24 37° ENE 22:16:01 10° N
Intercosmos 24 4.1 22:08:40 10° NNW 22:12:19 59° W 22:14:30 21° S
Cosmos 2082 Rocket 2.3 22:07:29 13° S 22:12:27 52° ESE 22:17:56 10° NNE
Cosmos 2058 Rocket 3.3 22:10:12 10° N 22:14:33 55° E 22:16:19 33° SE
Cosmos 2278 3.8 22:09:30 10° NNW 22:15:12 67° ENE 22:18:12 28° SE
YAOGAN 11 4.0 22:15:54 31° SSE 22:17:53 76° ENE 22:22:14 10° N
YAOGAN 6 4.2 22:17:41 13° SSW 22:20:14 29° W 22:23:21 10° NW
Nimbus 7 Rocket 4.5 22:15:31 10° NNE 22:21:31 60° ESE 22:25:32 22° S
Cosmos 2181 Rocket 4.0 22:16:20 15° S 22:21:47 80° E 22:28:06 10° N
Meteor 1-4 Rocket 3.5 22:20:13 10° NNE 22:23:24 30° ENE 22:23:30 30° E
Cosmos 1295 Rocket 4.4 22:20:15 10° N 22:26:29 80° E 22:30:08 27° SSE
Cosmos 2056 Rocket 3.7 22:21:44 10° NNW 22:26:51 63° WSW 22:29:39 26° S
MOS 1-B Rocket 4.1 22:23:05 22° S 22:26:58 77° WSW 22:33:28 10° NNW
H-2A R/B 3.4 22:32:00 26° E 22:32:55 28° ENE 22:36:45 10° N
Cosmos 1697 Rocket 3.2 22:27:45 10° N 22:33:10 46° ENE 22:35:16 32° ESE
Tiangong 2 2.4 22:32:04 10° WNW 22:35:04 38° N 22:36:17 26° NE
Cosmos 2369 3.7 22:29:41 10° NNW 22:35:26 84° WSW 22:38:00 34° SSE
Cosmos 1656 3.6 22:30:43 10° NNW 22:36:11 70° ENE 22:38:15 38° SE
Landsat 7 4.2 22:35:40 38° ESE 22:36:57 48° ENE 22:41:31 10° N
DMSP B5D2-2 4.3 22:32:49 10° NNE 22:37:56 48° E 22:39:16 39° SE
SL-16 R/B 4.4 22:38:12 10° NNE 22:40:36 13° NE 22:43:01 10° ENE
Cosmos 1626 Rocket 3.6 22:42:37 52° ESE 22:43:06 55° E 22:47:19 10° NNE
Cosmos 1420 Rocket 4.5 22:38:44 10° N 22:43:49 47° ENE 22:45:12 38° ESE
Cosmos 1048 Rocket 4.2 22:45:30 43° ESE 22:46:06 45° ESE 22:51:01 10° NNE
COSMOS 2487 3.9 22:44:42 16° SW 22:47:10 38° WNW 22:50:32 10° N
Cosmos 1833 Rocket 2.6 22:42:35 14° SSW 22:47:27 85° WNW 22:53:07 10° NNE
Terra 2.2 22:51:09 42° ESE 22:51:58 47° ENE 22:56:32 10° N
Cosmos 1271 Rocket 4.1 22:49:35 10° NNE 22:52:36 27° ENE 22:52:36 27° ENE
Cosmos 2228 3.5 22:54:15 10° NNW 22:58:26 52° W 22:59:29 41° SW
Cosmos 1452 Rocket 3.5 22:53:29 10° NNW 22:58:46 82° WSW 23:00:11 50° S
SPOT 5 3.5 22:58:02 31° SW 22:59:25 41° W 23:03:32 10° NNW
Cosmos 921 Rocket 4.2 22:56:11 10° NNW 23:00:16 36° W 23:01:36 29° SW
SL-8 Rocket 4.1 22:54:32 10° N 23:00:48 74° W 23:03:39 35° S
SPOT 1/Viking Rocket 3.8 23:01:13 40° SSW 23:02:58 62° W 23:08:05 10° NNW
Cosmos 2366 rocket 3.9 23:01:00 10° N 23:07:12 89° W 23:09:16 45° S
USA 267 4.3 23:04:05 10° ENE 23:07:57 27° E 23:07:57 27° E
Cosmos 1544 4.4 23:10:20 10° N 23:12:44 31° NE 23:12:44 31° NE
Spot 4 4.5 23:13:50 41° E 23:14:06 41° ENE 23:18:37 10° N
Lacrosse 5 4.0 23:17:43 13° ENE 23:17:43 13° ENE 23:18:24 10° ENE
Cosmos 1953 3.9 23:12:21 10° NNE 23:15:05 25° ENE 23:15:05 25° ENE
ISS -0.2 23:17:32 10° NNW 23:17:58 10° N 23:18:24 10° N
Cosmos 1602 Rocket 3.9 23:17:48 52° WSW 23:18:26 58° W 23:22:42 10° N
Cosmos 1980 Rocket 2.2 23:16:18 10° NNW 23:21:58 69° ENE 23:22:51 59° ESE
Cosmos 1766 3.7 23:23:11 10° NNW 23:26:31 60° NW 23:26:31 60° NW
Meteor 2-8 Rocket 4.4 23:29:12 56° SE 23:30:02 62° E 23:36:07 10° NNE
deb Chang Zheng 4 3.6 23:27:28 10° N 23:31:44 72° WNW 23:31:44 72° WNW
Meteor 1-21 4.3 23:31:31 53° SSW 23:32:53 77° W 23:38:38 10° N
Cosmos 2322 Rocket 3.4 23:28:01 10° N 23:33:03 31° ENE 23:34:12 29° E
Lacrosse 5 rocket 3.7 23:34:48 10° NNW 23:38:16 20° NNE 23:40:10 16° ENE
USA 229 DEB 3.7 23:34:04 10° NNW 23:41:16 86° ENE 23:43:05 55° SE
USA 229 3.7 23:34:10 10° NNW 23:41:23 85° ENE 23:43:12 55° SE
CARTOSAT-1 4.4 23:44:16 43° W 23:44:16 43° W 23:48:10 10° NNW
DELTA 2 DEB (DPAF) 4.4 23:46:12 66° NNE 23:46:12 66° NNE 23:50:09 10° N
H-2A R/B 3.6 23:49:51 21° WSW 23:50:55 23° W 23:54:52 10° NW
Cosmos 1934 Rocket 4.3 23:46:25 10° N 23:52:38 52° E 23:53:14 50° E
CZ-2C R/B 3.9 23:49:08 10° NE 23:53:10 30° ENE 23:53:10 30° ENE
